{"data":{"norad_id":50171,"intl_designator":"2021-125R","name":"STARLINK-3286","alt_names":[],"object_type":"PAYLOAD","status":"ACTIVE","operator":null,"country":"US","launch_date":"2021-12-18","launch_site_code":"AFWTR","launch_vehicle":null,"mission":null,"orbit_class":"UNKNOWN","rcs_meters":null,"size_class":null,"mass_kg":null,"dimensions":null,"purposes":["comms"],"wikipedia_slug":null,"has_3d_model":false,"image_url":null,"decayed_at":null,"tle_current":{"epoch":"2026-09-20T01:00:48.285792Z","epoch_age_seconds":65229,"freshness":"FRESH","line1":"1 50171U 21125R   26263.04222553  .00000083  00000+0  14426-4 0  9998","line2":"2 50171  53.1609  81.0116 0001228  81.3620 278.7520 15.31703743266155","mean_motion":15.31703743,"eccentricity":0.0001228,"inclination_deg":53.1609,"raan_deg":81.0116,"arg_perigee_deg":81.362,"mean_anomaly_deg":278.752,"bstar":1.4426e-5,"rev_number":26615,"period_min":94.012958222561,"perigee_km":469.88779683529,"apogee_km":471.56987828499,"semimajor_km":6848.8658375601,"source":"CELESTRAK","updated_at":"2026-09-20T09:00:39.414853Z"}}}